Location: Dortmund
(51.5019°N, 7.6520°E)
Time: 04:56:34
(UTC+01:00)

N. Korean satellite - Visible Passes

Search period start: 25 November 2017 00:00
Search period end: 05 December 2017 00:00
Orbit: 460 x 514 km, 97.2° (Epoch: 24 November)

Date Brightness Start Highest point End Pass type
(mag) Time Alt. Az. Time Alt. Az. Time Alt. Az.
25 Nov 9.2 06:41:04 10° NE 06:44:16 26° E 06:47:29 10° SSE visible
25 Nov 7.7 17:22:46 10° ESE 17:25:38 23° ENE 17:28:33 10° NNE visible
25 Nov 8.3 18:55:45 10° SSW 18:59:01 34° W 19:02:22 10° NNW visible
26 Nov 9.9 06:18:15 10° NE 06:20:34 16° E 06:22:54 10° SE visible
26 Nov 7.0 18:31:53 10° S 18:35:25 63° WSW 18:39:04 10° NNW visible
27 Nov 6.4 18:08:20 10° SSE 18:11:55 70° ENE 18:15:34 10° N visible
27 Nov 10.0 19:44:38 10° WSW 19:45:55 12° W 19:47:13 10° WNW visible
28 Nov 8.0 07:03:45 10° NNE 07:07:24 45° E 07:11:02 10° S visible
28 Nov 7.0 17:45:06 10° SE 17:48:28 38° ENE 17:51:54 10° N visible
28 Nov 9.3 19:19:27 10° SW 19:22:09 20° W 19:24:55 10° NW visible
29 Nov 9.1 06:40:33 10° NE 06:43:46 26° E 06:46:59 10° SSE visible
29 Nov 7.7 17:22:12 10° ESE 17:25:06 23° ENE 17:28:04 10° NNE visible
29 Nov 8.3 18:55:10 10° SSW 18:58:28 34° W 19:01:52 10° NNW visible
30 Nov 9.9 06:17:43 10° NE 06:20:03 16° E 06:22:23 10° SE visible
30 Nov 8.3 16:59:45 10° E 17:01:49 15° ENE 17:03:54 10° NNE visible
30 Nov 7.0 18:31:18 10° S 18:34:52 63° W 18:38:33 10° NNW visible
01 Dec 6.8 07:26:37 10° NNE 07:30:25 82° E 07:34:10 10° SSW visible
01 Dec 6.5 18:07:44 10° SSE 18:11:21 70° ENE 18:15:02 10° N visible
01 Dec 10.0 19:43:56 10° WSW 19:45:21 12° W 19:46:46 10° WNW visible
02 Dec 8.0 07:03:12 10° NNE 07:06:51 45° E 07:10:28 10° S visible
02 Dec 7.0 17:44:30 10° SE 17:47:53 38° ENE 17:51:22 10° N visible
02 Dec 9.3 19:18:48 10° SW 19:21:34 20° W 19:24:23 10° NW visible
03 Dec 9.1 06:39:58 10° NE 06:43:12 26° E 06:46:23 10° SSE visible
03 Dec 7.7 17:21:34 10° ESE 17:24:31 23° ENE 17:27:30 10° N visible
03 Dec 8.3 18:54:30 10° SSW 18:57:52 35° W 19:01:19 10° NNW visible
04 Dec 9.9 06:17:09 10° NE 06:19:28 15° E 06:21:45 10° SE visible
04 Dec 8.3 16:59:06 10° E 17:01:12 15° ENE 17:03:19 10° NNE visible
04 Dec 7.0 18:30:38 10° S 18:34:15 64° W 18:37:58 10° NNW visible
